Powrót do katalogu

CZ-6A DEB

AktywnyPO
NORAD 54892·DEBRIS·🇨🇳 China

Wystrzelony Nov 11, 2022 z Taiyuan Satellite Launch Center

Loading…

Następne Przeloty (najbliższe 24 godziny)

TLE

ŚwieżeSource: Space-Track

Epoka: Sep 13, 2026, 17:45 UTC

1 54892U 22151QD  26256.73974471  .00006969  00000-0  10810-2 0  9994
2 54892  98.6146 325.8910 0065339  13.2195 347.0703 14.72041508200502

Śledź CZ-6A DEB w czasie rzeczywistym z AllMySat

Download on the App Store